Powrót do katalogu

STARLINK-34025

AktywnyŁącznośćVLEO
NORAD 63824·PAYLOAD·🇺🇸 United States

Wystrzelony May 4, 2025 z Cape Canaveral Space Force Station

Loading…

Następne Przeloty (najbliższe 24 godziny)

TLE

ŚwieżeSource: CelesTrak SupGP

Epoka: Sep 14, 2026, 21:11 UTC

1 63824C 25092W   26257.88312500 -.00002578  00000+0 -93370-4 0  2576
2 63824  42.9997 183.7187 0001238 263.4832  89.8877 15.27587160    12

Śledź STARLINK-34025 w czasie rzeczywistym z AllMySat

Download on the App Store